Zurück zum Katalog

FENGYUN 1C DEB

AktivPO
NORAD 32418·DEBRIS·🇨🇳 China

Gestartet May 10, 1999 von Taiyuan Satellite Launch Center

Loading…

Nächste Überflüge (nächste 24 Stunden)

TLE

VeraltetSource: Space-Track

Epoche: Sep 2, 2026, 08:41 UTC

1 32418U 99025DAE 26245.36197075  .00002530  00000-0  12947-2 0  9995
2 32418  98.1893  95.5580 0223507   9.7395 350.8001 14.04230796666878

Verfolge FENGYUN 1C DEB in Echtzeit mit AllMySat

Download on the App Store